�������l�o���
Date,Time,MP-1(��Sv/h),MP-2(��Sv/h),MP-3(��Sv/h),MP-4(��Sv/h),MP-5(��Sv/h),MP-6(��Sv/h),MP-7(��Sv/h),MP-8(��Sv/h),����,����(m/s),���J
2018/11/24,00:00,0.775,1.178,0.824,1.482,1.062,0.451,0.799,0.758,���k��,7.3,��
2018/11/24,00:10,0.775,1.177,0.825,1.484,1.063,0.450,0.800,0.758,���k��,7.9,��
2018/11/24,00:20,0.775,1.179,0.825,1.485,1.063,0.452,0.800,0.757,���k��,7.9,��
2018/11/24,00:30,0.777,1.177,0.824,1.481,1.064,0.451,0.802,0.757,���k��,8.7,��
2018/11/24,00:40,0.776,1.180,0.823,1.485,1.062,0.452,0.801,0.758,���k��,8.2,��
2018/11/24,00:50,0.775,1.180,0.826,1.482,1.064,0.452,0.801,0.756,���k��,8.8,��
2018/11/24,01:00,0.775,1.179,0.825,1.484,1.063,0.450,0.800,0.756,���k��,8.4,��
2018/11/24,01:10,0.777,1.179,0.824,1.484,1.063,0.451,0.800,0.756,�k��,8.3,��
2018/11/24,01:20,0.776,1.178,0.825,1.483,1.064,0.452,0.800,0.758,���k��,6.9,��
2018/11/24,01:30,0.774,1.178,0.824,1.484,1.065,0.451,0.800,0.758,���k��,7.0,��
2018/11/24,01:40,0.777,1.177,0.826,1.483,1.063,0.451,0.798,0.758,���k��,7.4,��
2018/11/24,01:50,0.774,1.180,0.825,1.487,1.064,0.452,0.800,0.758,���k��,7.3,��
2018/11/24,02:00,0.775,1.180,0.824,1.483,1.062,0.452,0.799,0.759,���k��,7.8,��
2018/11/24,02:10,0.777,1.176,0.824,1.485,1.062,0.452,0.801,0.757,���k��,7.6,��
2018/11/24,02:20,0.777,1.178,0.824,1.483,1.063,0.451,0.799,0.756,���k��,7.5,��
2018/11/24,02:30,0.776,1.178,0.826,1.482,1.065,0.453,0.800,0.757,���k��,7.5,��
2018/11/24,02:40,0.777,1.181,0.825,1.484,1.064,0.452,0.800,0.758,���k��,6.4,��
2018/11/24,02:50,0.775,1.178,0.825,1.484,1.066,0.452,0.801,0.758,���k��,7.0,��
2018/11/24,03:00,0.776,1.181,0.824,1.485,1.061,0.453,0.801,0.758,���k��,7.1,��
2018/11/24,03:10,0.775,1.179,0.827,1.485,1.065,0.450,0.800,0.757,���k��,6.6,��
2018/11/24,03:20,0.776,1.179,0.824,1.482,1.062,0.451,0.801,0.757,�k��,6.1,��
2018/11/24,03:30,0.779,1.178,0.827,1.484,1.061,0.453,0.802,0.759,�k��,6.3,��
2018/11/24,03:40,0.778,1.180,0.826,1.486,1.062,0.451,0.800,0.757,�k��,4.6,��
2018/11/24,03:50,0.776,1.180,0.825,1.482,1.062,0.452,0.801,0.758,�k��,3.3,��
2018/11/24,04:00,0.777,1.181,0.826,1.484,1.062,0.452,0.802,0.757,�k��,3.0,��
2018/11/24,04:10,0.775,1.179,0.824,1.485,1.064,0.452,0.801,0.757,�k��,2.0,��
2018/11/24,04:20,0.776,1.179,0.826,1.483,1.063,0.450,0.800,0.757,���k��,3.3,��
2018/11/24,04:30,0.776,1.178,0.824,1.482,1.064,0.451,0.800,0.759,���k��,4.7,��
2018/11/24,04:40,0.776,1.178,0.826,1.486,1.065,0.453,0.802,0.757,���k��,5.4,��
2018/11/24,04:50,0.776,1.178,0.825,1.484,1.065,0.452,0.801,0.759,�k��,5.1,��
2018/11/24,05:00,0.778,1.183,0.823,1.483,1.062,0.450,0.800,0.759,���k��,3.5,��
2018/11/24,05:10,0.778,1.180,0.826,1.487,1.064,0.450,0.801,0.758,���k��,3.4,��
2018/11/24,05:20,0.778,1.176,0.825,1.484,1.063,0.452,0.800,0.757,���k��,4.0,��
2018/11/24,05:30,0.775,1.176,0.823,1.483,1.062,0.452,0.800,0.757,�k��,2.8,��
2018/11/24,05:40,0.778,1.179,0.824,1.483,1.063,0.451,0.802,0.756,���k��,3.1,��
2018/11/24,05:50,0.778,1.179,0.825,1.483,1.064,0.451,0.799,0.758,���k��,3.0,��
2018/11/24,06:00,0.777,1.179,0.824,1.483,1.064,0.451,0.801,0.757,�k��,3.0,��
2018/11/24,06:10,0.777,1.182,0.824,1.483,1.064,0.452,0.801,0.757,�k��,3.1,��
2018/11/24,06:20,0.776,1.179,0.823,1.483,1.062,0.451,0.800,0.758,�k��,4.1,��
2018/11/24,06:30,0.776,1.180,0.827,1.480,1.062,0.450,0.800,0.757,�k��,4.8,��
2018/11/24,06:40,0.777,1.177,0.824,1.482,1.063,0.452,0.802,0.757,�k��,4.0,��
2018/11/24,06:50,0.777,1.179,0.825,1.482,1.064,0.451,0.801,0.757,�k��,3.0,��
2018/11/24,07:00,0.774,1.177,0.823,1.482,1.063,0.451,0.801,0.757,�k��,3.2,��
2018/11/24,07:10,0.776,1.178,0.824,1.483,1.063,0.452,0.800,0.759,���k��,3.6,��
2018/11/24,07:20,0.776,1.177,0.823,1.485,1.063,0.451,0.800,0.757,���k��,2.3,��
2018/11/24,07:30,0.777,1.178,0.825,1.480,1.063,0.452,0.801,0.758,���k��,1.5,��
2018/11/24,07:40,0.779,1.180,0.825,1.484,1.064,0.452,0.799,0.758,��,2.0,��
2018/11/24,07:50,0.777,1.182,0.824,1.481,1.064,0.451,0.799,0.758,��,2.9,��
2018/11/24,08:00,0.776,1.177,0.825,1.480,1.066,0.450,0.799,0.758,���쐼,2.8,��
2018/11/24,08:10,0.777,1.177,0.826,1.484,1.066,0.451,0.800,0.757,���쐼,2.0,��
2018/11/24,08:20,0.777,1.179,0.825,1.483,1.064,0.452,0.801,0.757,��,1.2,��
2018/11/24,08:30,0.776,1.178,0.824,1.482,1.063,0.452,0.800,0.758,�쐼,2.5,��
2018/11/24,08:40,0.777,1.179,0.826,1.484,1.061,0.451,0.800,0.757,�쐼,1.5,��
2018/11/24,08:50,0.775,1.178,0.825,1.483,1.064,0.452,0.803,0.760,��쐼,0.6,��
2018/11/24,09:00,0.778,1.178,0.826,1.480,1.061,0.453,0.802,0.758,��쓌,1.2,��
2018/11/24,09:10,0.778,1.177,0.825,1.487,1.064,0.451,0.801,0.757,��쐼,1.2,��
2018/11/24,09:20,0.776,1.179,0.824,1.484,1.064,0.451,0.800,0.758,��,1.7,��
2018/11/24,09:30,0.777,1.175,0.824,1.482,1.065,0.452,0.800,0.758,��쐼,1.9,��
2018/11/24,09:40,0.777,1.175,0.825,1.483,1.064,0.453,0.802,0.758,��,1.2,��
2018/11/24,09:50,0.776,1.177,0.826,1.484,1.066,0.453,0.801,0.759,���쐼,1.1,��
2018/11/24,10:00,0.780,1.176,0.824,1.482,1.063,0.454,0.802,0.758,-,CALM,��
2018/11/24,10:10,0.778,1.180,0.825,1.484,1.065,0.453,0.804,0.758,�k�k��,1.4,��
2018/11/24,10:20,0.778,1.179,0.825,1.483,1.067,0.454,0.800,0.759,�k�k��,1.2,��
2018/11/24,10:30,0.780,1.178,0.826,1.483,1.066,0.453,0.801,0.760,�k��,2.3,��
2018/11/24,10:40,0.778,1.180,0.826,1.482,1.066,0.454,0.800,0.758,�k��,2.6,��
2018/11/24,10:50,0.779,1.178,0.823,1.483,1.067,0.454,0.800,0.757,���k��,2.3,��
2018/11/24,11:00,0.777,1.179,0.826,1.482,1.066,0.454,0.799,0.757,���k��,2.5,��
2018/11/24,11:10,0.780,1.178,0.826,1.482,1.066,0.453,0.799,0.759,���k��,2.6,��
2018/11/24,11:20,0.779,1.178,0.824,1.483,1.066,0.453,0.799,0.758,���k��,2.6,��
2018/11/24,11:30,0.778,1.179,0.826,1.486,1.064,0.454,0.799,0.757,�k�k��,3.3,��
2018/11/24,11:40,0.780,1.180,0.825,1.484,1.063,0.453,0.800,0.759,���k��,3.3,��
2018/11/24,11:50,0.780,1.179,0.826,1.483,1.063,0.453,0.799,0.759,���k��,3.3,��
2018/11/24,12:00,0.781,1.179,0.825,1.485,1.065,0.453,0.800,0.759,���k��,3.1,��
2018/11/24,12:10,0.779,1.179,0.825,1.486,1.063,0.454,0.797,0.761,�k��,3.3,��
2018/11/24,12:20,0.781,1.181,0.827,1.484,1.064,0.454,0.800,0.759,���k��,3.4,��
2018/11/24,12:30,0.781,1.181,0.828,1.485,1.062,0.453,0.801,0.761,�k��,3.6,��
2018/11/24,12:40,0.779,1.179,0.827,1.486,1.063,0.454,0.800,0.758,�k��,3.3,��
2018/11/24,12:50,0.782,1.181,0.828,1.484,1.065,0.454,0.801,0.759,�k��,2.9,��
2018/11/24,13:00,0.781,1.179,0.829,1.487,1.063,0.455,0.802,0.759,�k�k��,2.8,��
2018/11/24,13:10,0.779,1.180,0.827,1.482,1.064,0.454,0.802,0.758,�k��,2.2,��
2018/11/24,13:20,0.779,1.179,0.827,1.486,1.064,0.455,0.802,0.756,���k��,2.2,��
2018/11/24,13:30,0.782,1.178,0.827,1.483,1.066,0.454,0.802,0.755,�k�k��,2.3,��
2018/11/24,13:40,0.782,1.175,0.828,1.485,1.066,0.456,0.802,0.755,�k��,1.7,��
2018/11/24,13:50,0.781,1.178,0.829,1.486,1.066,0.455,0.802,0.757,�k�k��,2.0,��
2018/11/24,14:00,0.781,1.179,0.827,1.485,1.067,0.455,0.802,0.757,�k,2.0,��
2018/11/24,14:10,0.782,1.178,0.828,1.484,1.070,0.455,0.801,0.756,�k�k��,1.9,��
2018/11/24,14:20,0.781,1.178,0.827,1.484,1.070,0.455,0.802,0.756,�k�k��,1.4,��
2018/11/24,14:30,0.782,1.179,0.828,1.486,1.070,0.454,0.801,0.756,�k�k��,2.5,��
2018/11/24,14:40,0.782,1.182,0.829,1.484,1.069,0.455,0.801,0.759,�k�k��,2.2,��
2018/11/24,14:50,0.782,1.182,0.833,1.486,1.070,0.454,0.801,0.760,�k�k��,1.5,��
2018/11/24,15:00,0.783,1.181,0.828,1.483,1.068,0.455,0.802,0.760,�k�k��,2.0,��
2018/11/24,15:10,0.780,1.182,0.828,1.484,1.070,0.454,0.802,0.759,�k�k��,1.9,��
2018/11/24,15:20,0.782,1.184,0.829,1.486,1.068,0.455,0.801,0.759,���k��,1.5,��
2018/11/24,15:30,0.780,1.184,0.826,1.485,1.071,0.454,0.801,0.760,���쓌,1.2,��
2018/11/24,15:40,0.781,1.183,0.826,1.485,1.069,0.456,0.803,0.759,�k,0.9,��
2018/11/24,15:50,0.781,1.184,0.827,1.484,1.067,0.454,0.802,0.759,�k��,1.2,��
2018/11/24,16:00,0.780,1.183,0.827,1.484,1.067,0.454,0.804,0.759,�k��,1.2,��
2018/11/24,16:10,0.780,1.181,0.828,1.485,1.067,0.455,0.803,0.759,�k�k��,0.8,��
2018/11/24,16:20,0.781,1.185,0.828,1.485,1.068,0.456,0.802,0.756,-,CALM,��
2018/11/24,16:30,0.781,1.182,0.828,1.483,1.069,0.454,0.802,0.759,�k�k��,1.1,��
2018/11/24,16:40,0.781,1.182,0.827,1.485,1.070,0.454,0.803,0.758,�k,1.2,��
2018/11/24,16:50,0.780,1.183,0.828,1.483,1.068,0.454,0.802,0.758,�k�k��,1.2,��
2018/11/24,17:00,0.779,1.183,0.826,1.484,1.068,0.456,0.800,0.759,�k�k��,0.6,��
2018/11/24,17:10,0.780,1.183,0.828,1.484,1.067,0.455,0.799,0.759,�k�k��,1.1,��
2018/11/24,17:20,0.780,1.182,0.827,1.484,1.069,0.453,0.801,0.758,�k��,1.2,��
2018/11/24,17:30,0.780,1.183,0.827,1.485,1.067,0.453,0.802,0.758,�k��,1.5,��
2018/11/24,17:40,0.779,1.183,0.825,1.483,1.069,0.451,0.801,0.759,�k��,1.7,��
2018/11/24,17:50,0.779,1.183,0.826,1.486,1.066,0.453,0.799,0.757,�k��,2.3,��
2018/11/24,18:00,0.779,1.183,0.827,1.484,1.070,0.454,0.800,0.757,�k��,2.6,��
2018/11/24,18:10,0.780,1.184,0.828,1.485,1.071,0.454,0.802,0.758,�k��,3.0,��
2018/11/24,18:20,0.778,1.183,0.826,1.484,1.068,0.452,0.800,0.757,�k��,2.9,��
2018/11/24,18:30,0.778,1.182,0.829,1.484,1.070,0.453,0.801,0.759,���k��,2.2,��
2018/11/24,18:40,0.779,1.182,0.824,1.486,1.067,0.453,0.799,0.757,��,1.2,��
2018/11/24,18:50,0.779,1.182,0.828,1.484,1.066,0.454,0.800,0.759,�k��,1.1,��
2018/11/24,19:00,0.780,1.182,0.826,1.485,1.069,0.452,0.802,0.757,���k��,1.9,��
2018/11/24,19:10,0.777,1.183,0.828,1.483,1.067,0.452,0.800,0.756,���k��,1.5,��
2018/11/24,19:20,0.778,1.181,0.826,1.485,1.067,0.453,0.802,0.758,�k��,1.1,��
2018/11/24,19:30,0.779,1.183,0.825,1.484,1.066,0.451,0.800,0.759,�k��,1.7,��
2018/11/24,19:40,0.782,1.180,0.826,1.485,1.068,0.452,0.801,0.758,�k��,2.6,��
2018/11/24,19:50,0.778,1.181,0.825,1.482,1.067,0.453,0.800,0.758,�k��,2.6,��
2018/11/24,20:00,0.777,1.183,0.827,1.484,1.065,0.451,0.801,0.757,���k��,2.6,��
2018/11/24,20:10,0.778,1.183,0.825,1.483,1.065,0.453,0.801,0.758,���k��,2.6,��
2018/11/24,20:20,0.779,1.182,0.824,1.484,1.067,0.451,0.799,0.758,���k��,2.6,��
2018/11/24,20:30,0.779,1.181,0.826,1.484,1.067,0.453,0.800,0.759,�k��,2.0,��
2018/11/24,20:40,0.778,1.181,0.826,1.486,1.068,0.452,0.800,0.758,�k��,2.3,��
2018/11/24,20:50,0.779,1.182,0.826,1.483,1.067,0.452,0.800,0.759,�k��,2.0,��
2018/11/24,21:00,0.777,1.180,0.826,1.482,1.066,0.452,0.799,0.758,�k��,1.5,��
2018/11/24,21:10,0.778,1.181,0.826,1.484,1.067,0.453,0.799,0.759,�k��,1.5,��
2018/11/24,21:20,0.780,1.182,0.825,1.484,1.069,0.452,0.800,0.758,�k��,1.7,��
2018/11/24,21:30,0.776,1.182,0.825,1.482,1.068,0.452,0.800,0.758,�k�k��,1.7,��
2018/11/24,21:40,0.778,1.180,0.826,1.482,1.069,0.452,0.801,0.759,�k��,1.5,��
2018/11/24,21:50,0.779,1.180,0.828,1.483,1.068,0.452,0.799,0.757,�k��,3.2,��
2018/11/24,22:00,0.779,1.179,0.827,1.483,1.067,0.451,0.800,0.759,�k��,3.5,��
2018/11/24,22:10,0.777,1.180,0.825,1.483,1.066,0.453,0.800,0.759,�k��,4.1,��
2018/11/24,22:20,0.779,1.182,0.827,1.483,1.066,0.453,0.800,0.759,�k�k��,3.9,��
2018/11/24,22:30,0.778,1.181,0.825,1.484,1.066,0.453,0.801,0.759,�k�k��,4.0,��
2018/11/24,22:40,0.779,1.180,0.827,1.488,1.069,0.453,0.801,0.758,�k�k��,3.8,��
2018/11/24,22:50,0.777,1.181,0.826,1.484,1.066,0.453,0.799,0.759,�k�k��,4.8,��
2018/11/24,23:00,0.779,1.183,0.828,1.485,1.068,0.452,0.802,0.759,�k�k��,5.5,��
2018/11/24,23:10,0.779,1.181,0.827,1.484,1.067,0.455,0.800,0.758,�k�k��,5.8,��
2018/11/24,23:20,0.780,1.182,0.826,1.483,1.069,0.454,0.802,0.759,�k�k��,5.4,��
2018/11/24,23:30,0.781,1.181,0.827,1.484,1.067,0.453,0.802,0.759,�k��,5.6,��
2018/11/24,23:40,0.778,1.181,0.827,1.485,1.067,0.454,0.801,0.757,�k�k��,6.2,��
2018/11/24,23:50,0.780,1.183,0.828,1.484,1.067,0.452,0.803,0.759,�k�k��,6.4,��
